SCP
1 1 1 1 1 1 1 1 1 1 1 0 0 1 1 1 1 1 1 1 1 0 0 0 0 0 0 0 0 0 0 0 0 0 0 0 0 0 0 0 0 0 0
1 1 1 1 1 1 1 1 1 1 1 0 0 1 1 1 1 1 1 1 1 0 0 0 0 0 0 0 0 0 0 0 0 0 0 0 0 0 0 0 0 0 0
2 1 1 1 1 1 1 1 1 1 1 0 0 1 1 1 1 1 1 1 1 0 1 1 0 0 0 0 0 0 0 0 0 0 0 0 0 0 0 0 0 0 0
2 2 1 1 1 1 1 1 0 0 1 1 1 1 1 1 1 1 1 1 1 1 1 1 1 0 0 0 0 0 0 0 1 1 1 0 0 0 0 0 0 0 0
2 2 1 1 1 1 1 1 1 1 1 1 1 1 1 1 1 1 1 1 1 1 1 1 1 0 0 0 0 0 0 1 1 1 1 1 0 0 0 0 0 0 0
2 1 1 1 1 1 1 1 1 1 1 1 1 0 1 1 1 1 1 1 1 1 1 1 1 1 1 1 0 0 0 1 1 1 1 1 1 1 0 0 0 0 0
2 1 1 1 1 1 1 1 1 1 1 0 0 0 0 1 1 1 1 1 1 1 1 1 1 1 1 1 1 1 1 1 1 1 1 1 1 1 1 0 0 0 0
2 1 1 1 1 1 1 1 1 1 1 0 0 0 0 0 1 1 1 1 1 1 1 1 1 1 1 1 0 1 1 1 1 1 1 1 1 1 1 1 0 0 0
2 2 1 1 1 1 1 1 1 1 1 0 0 0 0 0 0 0 0 1 1 1 1 1 1 1 1 1 1 1 1 1 1 1 1 0 1 1 1 1 1 1 0
3 2 2 2 1 1 1 1 1 1 1 0 0 0 0 0 0 0 0 0 1 1 1 0 1 1 1 1 1 1 1 1 1 1 0 0 0 1 1 1 1 1 1
3 3 2 2 2 1 1 1 1 1 1 0 0 0 0 0 0 0 0 0 0 1 1 0 1 1 1 1 1 1 1 1 1 1 0 0 0 0 0 0 1 1 1
4 3 3 2 2 2 1 1 1 1 1 1 0 0 0 0 0 0 0 0 0 1 1 1 1 1 1 1 1 1 1 1 1 1 0 0 0 0 0 0 1 1 1
3 3 3 3 3 2 1 1 1 1 1 1 1 1 0 0 0 0 0 0 0 1 1 1 1 1 1 1 1 1 1 1 0 0 0 0 0 0 0 0 0 1 1
3 3 3 3 3 2 2 2 1 1 1 1 1 1 1 0 0 0 1 1 0 1 1 1 1 1 1 1 1 1 1 0 0 0 0 0 0 0 0 0 0 0 0
2 2 3 3 3 3 2 2 1 1 1 1 1 1 1 1 1 1 1 1 1 0 1 1 1 1 2 1 1 1 1 1 0 0 0 0 0 0 0 0 0 0 0
2 2 2 2 2 2 3 2 1 1 1 1 1 1 1 1 1 1 1 1 1 1 1 1 1 2 2 2 1 1 1 1 0 0 0 0 0 0 0 0 0 0 0
2 2 2 2 2 2 2 2 2 1 1 1 1 1 1 1 1 1 1 1 1 1 1 1 1 2 2 2 2 2 1 1 1 0 0 0 0 0 0 0 0 0 0
2 2 2 2 1 2 2 2 1 1 1 1 1 1 1 1 1 1 1 1 1 1 1 1 1 1 2 2 2 2 1 1 1 0 0 0 0 0 0 0 0 0 0
2 2 2 2 1 1 1 1 1 1 1 1 1 1 1 2 2 2 1 1 1 1 1 1 1 1 1 2 2 2 1 1 1 1 0 0 0 0 0 0 0 0 0
1 1 1 1 1 1 1 1 1 1 1 1 1 1 1 1 1 1 1 1 1 1 1 1 1 1 1 2 2 2 1 1 1 1 1 1 0 0 0 0 0 0 0
1 1 1 1 1 1 1 1 1 1 1 1 1 1 1 1 1 1 1 1 1 1 1 1 1 1 1 1 1 1 1 1 1 1 1 1 1 1 1 0 0 0 0
2 2 2 2 2 1 1 1 1 1 1 1 1 1 1 1 1 1 0 0 1 1 1 1 1 1 1 1 2 1 1 1 1 2 2 2 1 1 1 1 0 0 0
3 3 3 2 2 1 0 0 1 1 1 1 1 1 1 1 1 1 0 0 0 0 0 0 0 1 1 1 2 1 1 1 2 2 2 2 2 2 1 1 0 0 0
3 3 3 3 2 1 0 0 0 1 1 1 1 1 1 1 1 0 0 0 0 0 0 0 0 0 1 1 1 1 1 1 1 2 2 2 1 1 1 1 1 0 0
3 3 2 2 1 0 0 0 0 0 1 1 1 1 1 1 0 0 0 0 0 0 0 0 0 0 0 0 1 1 1 1 1 1 1 1 1 1 1 1 1 0 0
2 2 1 1 0 0 0 0 0 0 1 1 1 0 0 0 0 0 0 0 0 0 0 0 0 0 0 0 0 0 1 1 1 1 1 1 1 1 1 1 1 0 0
Wind_Speed
3 3 3 2 2 2 3 2 1 2 1 0 0 1 1 3 6 7 6 11 11 10 9 9 8 8 8 8 8 7 7 7 7 7 7 7 6 6 6 6 6 5 4
3 3 3 2 1 1 1 0 2 2 1 1 1 1 1 2 5 7 7 8 10 10 9 9 9 9 8 8 8 8 7 7 7 7 7 6 6 6 6 5 5 5 4
4 2 2 2 2 2 2 1 1 2 2 3 2 1 1 2 4 5 7 6 6 9 9 9 9 9 9 9 9 9 8 8 8 7 7 6 6 6 6 5 5 5 4
4 2 2 2 2 2 2 2 2 2 1 1 2 2 2 2 3 4 4 5 5 6 8 10 9 9 9 9 9 9 9 9 9 8 8 7 7 6 6 6 6 6 5
4 2 1 2 2 2 2 2 2 1 1 1 2 2 2 3 3 4 3 5 5 5 5 8 9 9 10 10 10 10 10 10 9 9 9 8 8 7 7 7 7 7 7
4 2 2 3 2 2 2 2 3 1 0 1 2 2 2 3 3 3 3 4 5 6 6 7 6 7 11 11 10 10 11 10 11 11 10 10 9 9 8 8 8 8 8
4 1 1 3 1 1 2 2 1 2 1 1 1 1 2 3 4 3 3 3 4 5 5 6 6 5 5 11 11 10 11 11 11 11 11 11 10 10 9 9 9 9 9
5 4 2 3 2 2 2 1 1 0 2 2 1 1 2 1 2 4 4 4 4 4 5 8 6 5 4 4 8 12 11 11 11 11 11 10 10 10 10 10 10 10 10
4 2 3 1 2 3 3 2 2 3 1 1 2 0 0 0 1 1 3 3 3 3 3 4 7 7 6 5 5 9 11 10 11 11 11 10 10 10 10 11 11 11 12
3 3 3 2 1 0 4 3 4 1 1 2 1 1 1 1 0 1 1 2 4 4 3 3 4 6 5 3 5 9 11 10 10 10 9 10 10 10 10 11 12 12 12
3 4 4 3 2 1 3 2 3 0 1 2 1 2 2 2 2 2 2 2 2 3 4 3 2 4 5 5 5 8 11 10 8 8 8 8 9 10 11 11 12 12 12
4 4 5 3 3 2 3 2 1 2 1 2 2 2 1 1 1 1 2 3 2 2 3 3 3 3 4 4 7 12 12 11 9 8 7 7 8 9 9 10 11 11 11
4 5 5 4 3 3 3 2 2 1 2 0 2 2 2 1 1 1 0 1 1 2 3 3 4 4 4 4 5 13 12 11 10 9 8 7 7 8 8 9 10 10 11
5 6 6 5 4 4 4 3 2 3 2 1 3 2 2 2 2 2 1 1 1 1 3 4 3 4 3 4 7 12 7 12 11 11 10 9 9 9 9 9 9 9 9
6 7 6 6 4 4 2 3 2 2 3 2 3 2 2 2 1 2 2 1 1 2 2 2 2 3 3 4 9 7 5 11 13 12 12 11 11 11 10 10 10 10 10
4 7 6 6 5 4 3 2 2 2 2 2 2 1 1 2 2 1 1 2 1 2 2 1 1 2 2 3 8 5 4 9 13 14 14 14 13 13 12 12 12 12 12
4 5 5 5 5 5 4 4 3 3 4 3 3 2 2 2 3 3 2 2 2 2 2 2 1 1 2 1 2 3 3 4 7 15 16 16 15 14 14 14 13 13 13
4 4 4 4 5 5 5 5 5 4 4 4 3 3 2 3 2 2 3 3 2 2 1 3 2 2 1 2 2 3 5 5 4 9 14 15 15 15 14 14 14 14 14
4 4 4 4 4 4 5 5 5 4 3 3 3 2 2 2 1 2 2 3 3 3 1 2 3 2 2 2 1 3 5 3 6 6 7 10 12 13 14 14 15 15 15
4 4 3 3 3 2 1 2 3 3 2 1 1 2 2 2 2 2 2 3 3 3 3 3 3 3 2 2 2 2 3 3 4 7 6 4 6 10 12 14 15 15 15
4 3 2 2 1 2 2 1 0 1 2 3 3 4 5 6 7 5 3 4 4 3 3 3 3 3 3 3 3 3 3 4 4 4 3 4 3 3 5 10 13 14 14
4 5 5 5 6 5 6 7 5 4 4 4 4 4 5 6 7 7 7 6 5 3 3 3 3 3 4 4 4 4 4 4 4 3 4 6 5 5 5 5 9 10 10
6 7 7 8 8 8 10 10 9 6 6 6 5 4 4 6 7 5 4 3 3 3 2 2 2 3 3 3 4 5 5 5 6 6 6 7 6 6 6 8 9 9 10
7 7 8 9 9 10 12 10 9 7 7 6 6 6 6 6 8 7 4 3 2 2 1 1 1 2 3 2 3 4 6 6 6 6 5 6 6 6 7 5 9 11 11
7 8 8 9 10 10 12 10 7 5 6 6 6 7 7 7 10 10 6 5 4 4 4 3 4 6 7 8 6 3 4 5 6 5 4 5 5 6 6 5 7 10 11
9 8 9 9 10 9 12 13 8 4 5 5 5 7 11 9 9 10 6 5 5 6 7 8 6 7 7 7 8 5 4 5 6 5 4 5 6 7 6 4 4 6 8
Wind_Direction
149 131 131 142 182 148 167 209 158 132 100 44 238 145 124 97 118 121 134 149 148 151 155 160 161 164 163 162 162 160 158 156 153 155 157 159 156 153 150 150 148 145 141
125 123 140 150 181 147 112 121 120 142 186 171 197 119 110 103 109 129 144 156 159 162 167 171 172 172 172 175 176 175 174 171 169 170 168 168 169 167 168 167 168 167 163
126 137 150 177 177 133 128 169 175 185 194 176 178 167 146 124 124 135 148 158 164 173 177 181 181 182 185 188 190 189 188 184 182 182 181 180 183 183 183 181 182 181 180
133 150 170 167 149 154 164 173 221 208 183 172 165 179 147 138 138 157 160 161 161 170 181 189 189 190 195 197 200 200 199 195 190 190 192 193 195 196 195 196 194 195 194
147 176 149 119 179 177 181 203 157 140 160 174 169 174 165 160 164 190 167 161 158 159 169 185 192 196 203 205 207 207 206 205 201 201 202 203 205 205 206 207 206 207 207
153 178 157 141 218 189 149 76 90 77 55 205 226 163 173 160 180 182 191 170 161 174 172 172 183 204 210 211 211 213 211 210 209 210 209 210 214 213 212 214 215 217 217
149 195 145 144 226 154 116 128 134 166 232 214 174 172 190 191 188 177 197 170 175 178 166 171 182 189 198 212 213 213 213 214 212 214 216 215 218 217 217 219 221 223 224
164 183 148 181 163 120 123 134 109 212 241 196 206 194 202 198 213 193 177 184 182 174 183 186 182 182 192 186 206 209 212 215 216 218 219 218 220 221 222 224 226 226 227
178 140 146 202 146 175 152 175 185 219 247 213 228 191 98 190 184 187 201 177 161 174 195 182 181 184 192 187 184 201 207 210 216 221 222 222 223 224 227 228 229 229 229
161 153 163 145 149 175 138 195 175 211 225 245 215 175 177 163 140 149 239 179 178 185 195 199 186 177 182 178 170 179 194 201 209 219 224 224 224 225 228 230 233 235 235
166 164 155 146 168 224 135 93 99 287 288 270 267 205 198 191 227 187 193 188 200 187 185 189 184 174 185 182 173 178 185 191 199 210 219 224 227 227 227 230 237 240 240
173 170 155 154 179 168 119 122 123 206 285 341 337 320 205 217 232 209 187 196 197 192 175 170 180 180 187 187 186 168 178 186 193 202 213 221 225 227 227 231 236 240 243
170 168 155 159 173 132 143 160 175 244 202 250 309 312 329 328 344 356 16 223 179 184 178 191 190 188 201 160 153 167 180 187 193 201 212 220 225 227 229 233 237 240 244
163 155 148 166 165 163 177 160 196 194 172 195 260 305 331 321 344 336 328 347 286 239 207 206 184 187 188 155 164 177 185 194 200 205 213 221 226 229 231 234 236 238 243
149 152 158 165 168 176 169 149 233 190 140 197 238 224 254 287 276 297 319 332 321 302 278 223 187 175 159 140 159 190 195 199 205 210 216 222 226 229 233 236 238 241 245
142 154 164 165 168 170 176 193 224 176 172 224 251 264 235 295 305 267 281 298 303 298 297 290 240 174 160 163 172 211 222 199 208 214 220 223 226 229 232 236 240 243 245
150 164 170 170 173 176 182 203 240 186 196 222 241 227 223 283 320 333 324 306 296 298 290 301 319 41 126 150 160 235 245 213 214 220 223 225 226 230 233 237 240 243 246
170 176 177 178 191 188 185 195 226 211 195 212 229 246 241 245 239 288 320 317 312 315 310 303 313 335 298 228 217 242 261 260 256 233 225 227 229 232 236 239 242 244 246
179 185 187 188 204 202 188 198 214 224 206 211 219 220 242 271 281 292 295 312 321 316 316 291 292 299 298 304 287 272 282 295 296 289 244 234 238 243 245 245 246 247 248
180 189 191 194 206 216 208 212 208 214 202 153 66 65 52 41 9 327 318 334 328 326 326 316 304 306 309 331 343 324 309 320 310 307 309 286 255 252 255 256 255 254 254
174 156 131 106 94 83 29 32 6 153 120 97 77 75 71 69 62 47 37 22 4 353 341 332 321 331 347 358 354 337 317 316 301 295 318 313 305 287 275 269 265 260 257
111 105 93 81 70 58 46 60 64 71 83 89 87 82 79 64 62 64 61 54 42 20 3 348 343 347 0 4 356 338 331 329 313 331 338 312 305 290 276 267 265 262 262
104 97 92 85 76 52 49 58 62 74 76 73 69 62 58 53 41 34 46 65 66 67 58 3 351 348 345 356 347 331 323 314 292 296 298 289 283 281 280 290 295 287 282
102 98 94 90 80 55 46 51 57 77 80 76 73 72 71 54 32 20 13 21 24 20 358 309 318 305 314 323 305 295 291 289 279 278 278 285 287 285 293 301 307 305 297
98 95 93 89 81 59 44 46 47 80 83 76 72 66 70 65 36 22 16 13 11 358 350 341 302 282 277 272 266 285 292 297 299 300 306 305 313 316 310 304 305 315 320
98 93 86 81 81 70 49 47 43 68 82 85 86 76 64 58 40 28 20 12 5 354 341 328 308 283 269 263 253 242 277 301 309 309 338 341 326 327 310 301 318 324 315